Back to catalog

USA 458

AliveMilitaryVLEO
NORAD 62357·PAYLOAD·🇺🇸 United States

Launched Dec 17, 2024 from Vandenberg Space Force Base

Loading…

Next Passes (next 24 hours)

TLE

StaleSource: Mike McCants

Epoch: Aug 19, 2026, 19:46 UTC

1 62357U 24243T   26231.82420678 0.00000000  00000-0  00000-0 0    02
2 62357  70.0140 122.3035 0004000 275.9904  84.0095 14.96713208    00

Track USA 458 in real time with AllMySat

Download on the App Store